Location: Champs
(48.8539°N, 2.6040°E)
Time: 12:57:00
(UTC+00:00)

Meteor 1-24 Rocket - Pass Details

Date: 26 October 2021
Orbit: 790 x 927 km, 81.3° (Epoch: 06 December)

Event Time Altitude Azimuth Distance (km) Brightness Sun altitude
Rises 05:28:35 0° 195° (SSW) 3,289 6.7 -10.2°
Reaches altitude 10° 05:30:56 10° 198° (SSW) 2,373 5.9 -9.8°
Maximum altitude 05:36:17 74° 283° (WNW) 855 3.6 -9.0°
Drops below altitude 10° 05:41:51 10° 9° (N) 2,464 6.1 -8.1°
Sets 05:44:19 0° 11° (N) 3,424 6.9 -7.7°
